STARLINK-36450, 67317

Orbit data source: Space-Track

STARLINK-36450, 67317 is a payload satellite owned by SpaceX/Seattle (US) in LEO that was launched on Sun, 04 Jan 2026 UTC via an FALCON 9 launch vehicle from the Air Force Eastern Test Range (AFETR). Payload-class satellites include a variety of spacecraft equipped with specific instruments for various scientific and technological missions. These include communications satellites like Starlink; space stations such as the ISS; scientific satellites like the Hubble; Earth observation satellites from companies like Planet Labs, Umbra, and HawkEye 360; GPS; miniature CubeSats for education and research; and military/defense satellites.

Loading next visibility...
Identifier
67317, 2026-002N
Orbit
LEO
Country
Flag of USUS
Related business
Manufacturer
SpaceX/Seattle
Mission
Operational Commercial Communications
Bus & Motor
STARLINK V2MO, Unknown motor
Mass
575 kg wet, ~530 kg dry
Launch date (UTC)
2026-01-04 (5 months ago)
Launch vehicle
FALCON 9
Launch site
Air Force Eastern Test Range (AFETR)
Object type
Payload
Rocket body
Debris
Shape & HBR
Box + 2 Pan, 17.7 m
Radar Cross Section
36.964 m², Large (>1 m²)

Expand to show TLE details & history
Last TLE update: 17 hours ago

TLE from 17 hours ago
0 STARLINK-36450
1 67317U 26002N   26171.14249254  .00016465  00000-0  60647-3 0  9990
2 67317  43.0041 107.0225 0001317 273.9661  86.1041 15.27582448 26904
Epoch: 2026-06-20T03:25Z
TLE epoch observation values (Epoch: 2026-06-20T03:25:11.355Z)
Latitude
0.00004°
Longitude
147.36387°
Altitude
482.756 km
Speed
7.626 km/s
True Right ascension
07h 08m 05s
True Declination
0° 00' 00"
Sunlit
Object was in daylight at epoch
Visualization orbit readout
Latitude
Unknown
Longitude
Unknown
Altitude
Unknown
Speed
Unknown
Apparent Right ascension
Unknown
Apparent Declination
Unknown
Sunlit
N/A
Visualization observer readout
Local Sidereal Time
07:23:00
Azimuth
Unknown
Elevation
Unknown
Doppler factor
Unknown
Orbital elements
Apogee altitude
485.89 km
Perigee altitude
484.082 km
Semi-major axis
6,863.123 km
Eccentricity
0.00013
Inclination
43.0041°
RAAN
107.0225°
Arg. of periapsis
273.9661°
True anomaly
86.11916°
Mean anomaly
86.1041°
Eccentric anomaly
86.11163°
Mean motion
3.81734 °/min
Orbital period
94.31 mins
BSTAR
0.00060647
Loading maneuver chart data...
Computing Atmospheric mass density...
Loading historical data...
Loading historical data...
Loading historical data...
Loading historical data...
Loading historical data...
Loading historical data...
Loading historical data...

Documentation

Showing up to 5 results
|